Home   Weather   Angels Camp   Past weeks

Flag for USA Past Weather in Angels Camp, California, USA — Yesterday and Last 2 Weeks

Now
37 °F

Clear.


Feels Like: 37 °F
Forecast: 28 / 51 °F
Wind: No wind

Location: Modesto City-County-Sham Field

Current Time: Feb 24, 2017 at 6:56:40 am

Latest Report: Feb 24, 2017 at 5:53 am


Visibility: 10 mi

Pressure: 30.22 "Hg

Humidity: 76%

Dew Point: 30 °F

Location of Angels CampLocation

Past Weather in Angels Camp — Graph

°F

Angels Camp Temperature Yesterday

Maximum temperature yesterday: 54 °F (at 3:53 pm)
Minimum temperature yesterday: 37 °F (at 6:53 am)
Average temperature yesterday: 46 °F

High & Low Weather Summary for the Past Weeks

 TemperatureHumidityPressure
High68 °F (Feb 14, 2:53 pm)97% (Feb 20, 7:53 am)30.25 "Hg (Feb 20, 7:53 am)
Low37 °F (Feb 23, 6:53 am)41% (Feb 12, 3:53 pm)29.18 "Hg (Feb 17, 5:53 pm)
Average54 °F75%29.99 "Hg
* Reported Feb 9 4:53 am — Feb 24 4:53 am, Angels Camp, Weather by CustomWeather, © 2017

Note: Actual official high and low records may vary slightly from our data, if they occured in-between our weather recording intervals... More about our weather records

Advertising

Angels Camp Weather History for the Previous 24 Hours

Scroll right to see more
 ConditionsComfort  
Time TempWeatherWind HumidityBarometerVisibility
4:53 am
Fri, Feb 24
38 °FClear.No wind83%30.22 "Hg10 mi
3:53 am38 °FClear.3 mph86%30.22 "Hg10 mi
2:53 am39 °FClear.No wind86%30.23 "Hg10 mi
1:53 am40 °FClear.No wind77%30.24 "Hg10 mi
12:53 am42 °FClear.No wind76%30.24 "Hg10 mi
11:53 pm
Thu, Feb 23
41 °FClear.No wind74%30.22 "Hg10 mi
10:53 pm43 °FClear.No wind65%30.22 "Hg10 mi
9:53 pm44 °FClear.3 mph63%30.21 "Hg10 mi
8:53 pm46 °FClear.No wind56%30.19 "Hg10 mi
7:53 pm47 °FClear.5 mph54%30.18 "Hg10 mi
6:53 pm46 °FClear.6 mph56%30.18 "Hg10 mi
5:53 pm50 °FPassing clouds.9 mph48%30.16 "Hg10 mi
4:53 pm53 °FScattered clouds.8 mph41%30.16 "Hg10 mi
3:53 pm54 °FScattered clouds.7 mph41%30.16 "Hg10 mi
2:53 pm53 °FScattered clouds.10 mph47%30.16 "Hg10 mi
1:53 pm53 °FScattered clouds.10 mph43%30.17 "Hg10 mi
12:53 pm52 °FScattered clouds.10 mph47%30.19 "Hg10 mi
11:53 am52 °FPassing clouds.12 mph53%30.20 "Hg10 mi
10:53 am51 °FSunny.12 mph52%30.22 "Hg10 mi
9:53 am48 °FSunny.9 mph54%30.23 "Hg10 mi
8:53 am46 °FSunny.8 mph58%30.23 "Hg10 mi
7:53 am41 °FPassing clouds.3 mph70%30.22 "Hg10 mi
6:53 am37 °FSunny.3 mph79%30.19 "Hg10 mi
Weather by CustomWeather, © 2017

See weather overviewHow to use our weather pages